Weather History for McAlester, OK

Change the Weather History Date:

Sunday, November 11, 2012

  Actual Average Record
Temperature  
Mean Temperature 54 °F -  
Max Temperature 70 °F 63 °F 82 °F (1969)
Min Temperature 36 °F 39 °F 24 °F (1968)
Degree Days  
Heating Degree Days 12    
Growing Degree Days 4 (Base 50)    
Moisture  
Dew Point 48 °F    
Average Humidity 83    
Maximum Humidity 94    
Minimum Humidity 63    
Precipitation  
Precipitation 0.62 in - - ()
Sea Level Pressure  
Sea Level Pressure 29.97 in    
Wind  
Wind Speed 14 mph (NNW)    
Max Wind Speed 28 mph    
Max Gust Speed 38 mph    
Visibility 7 miles    
Events Rain , Thunderstorm    
Averages and records for this station are not official NWS values.
T = Trace of Precipitation, MM = Missing Value Source: NWS Daily Summary

Daily Weather History Graph

Daily Weather History Graph

Search for Another Location

Airport:

Trip Planner

Search our weather history database for the weather conditions in past years. The results will help you decide how hot, cold, wet, or windy it might be!

Date:

Astronomy

Nov. 11, 2012 Rise Set
Actual Time 6:53 AM CST 5:20 PM CST
Civil Twilight 6:27 AM CST 5:46 PM CST
Nautical Twilight 5:56 AM CST 6:17 PM CST
Astronomical Twilight 5:27 AM CST 6:46 PM CST
Moon 4:13 AM CST (11/11) 3:40 PM CST (11/11)
Length of Visible Light 11h 19m
Length of Day
10h 26m
Waning Crescent, 7% of the Moon is Illuminated
Nov 11
Waning Crescent
Nov 13
New
Nov 20
First Quarter
Nov 28
Full
Dec 6
Last Quarter

Hourly Weather History & Observations

Time (CST) Temp. Windchill Dew Point Humidity Pressure Visibility Wind Dir Wind Speed Gust Speed Precip Events Conditions
12:53 AM 70.0 °F - 57.0 °F 63% 29.78 in 10.0 mi South 18.4 mph 32.2 mph N/A   Overcast
1:53 AM 70.0 °F - 57.9 °F 65% 29.77 in 10.0 mi South 23.0 mph 36.8 mph N/A   Overcast
2:53 AM 70.0 °F - 59.0 °F 68% 29.76 in 10.0 mi South 17.3 mph 33.4 mph N/A   Overcast
3:30 AM 69.8 °F - 59.0 °F 68% 29.82 in 10.0 mi South 12.7 mph 29.9 mph N/A   Overcast
3:53 AM 70.0 °F - 59.0 °F 68% 29.79 in 10.0 mi South 16.1 mph 26.5 mph 0.00 in Rain Light Rain
4:53 AM 70.0 °F - 60.1 °F 71% 29.79 in 10.0 mi South 11.5 mph 20.7 mph 0.00 in   Overcast
5:53 AM 68.0 °F - 61.0 °F 78% 29.79 in 9.0 mi South 10.4 mph 19.6 mph 0.00 in Rain Light Rain
6:53 AM 66.9 °F - 62.1 °F 84% 29.80 in 10.0 mi South 9.2 mph 20.7 mph 0.00 in   Overcast
7:53 AM 66.9 °F - 63.0 °F 87% 29.78 in 8.0 mi South 13.8 mph 24.2 mph 0.00 in Rain Light Rain
8:53 AM 68.0 °F - 63.0 °F 84% 29.77 in 8.0 mi South 16.1 mph 28.8 mph 0.01 in Rain Light Rain
9:16 AM 69.8 °F - 62.6 °F 78% 29.82 in 10.0 mi South 12.7 mph 29.9 mph N/A Thunderstorm Overcast
9:23 AM 60.8 °F - 55.4 °F 82% 29.85 in 2.5 mi North 27.6 mph 35.7 mph 0.07 in Rain , Thunderstorm Thunderstorms and Rain
9:25 AM 57.2 °F - 53.6 °F 88% 29.84 in 1.2 mi NNW 24.2 mph 35.7 mph 0.14 in Rain , Thunderstorm Heavy Thunderstorms and Rain
9:28 AM 55.4 °F - 53.6 °F 94% 29.88 in 0.8 mi NNW 15.0 mph 35.7 mph 0.18 in Rain , Thunderstorm Heavy Thunderstorms and Rain
9:36 AM 53.6 °F - 51.8 °F 94% 29.89 in 1.0 mi NW 20.7 mph 38.0 mph 0.29 in Rain , Thunderstorm Heavy Thunderstorms and Rain
9:40 AM 53.6 °F - 51.8 °F 94% 29.88 in 1.5 mi NNW 19.6 mph 29.9 mph 0.32 in Rain Heavy Rain
9:53 AM 54.0 °F - 51.1 °F 90% 29.88 in 1.8 mi NNW 15.0 mph 24.2 mph 0.40 in Rain Heavy Rain
9:57 AM 53.6 °F - 51.8 °F 94% 29.90 in 2.0 mi NW 16.1 mph 24.2 mph 0.01 in Rain Rain
10:04 AM 53.6 °F - 51.8 °F 94% 29.91 in 2.0 mi NNW 17.3 mph - 0.04 in Rain , Thunderstorm Heavy Rain
10:33 AM 53.6 °F - 50.0 °F 88% 29.94 in 4.0 mi North 13.8 mph - 0.12 in Rain , Thunderstorm Light Rain
10:41 AM 53.6 °F - 50.0 °F 88% 29.94 in 2.5 mi North 12.7 mph - 0.14 in Rain Rain
10:51 AM 53.6 °F - 50.0 °F 88% 29.95 in 4.0 mi North 4.6 mph 16.1 mph 0.15 in Rain Light Rain
10:53 AM 53.1 °F - 50.0 °F 89% 29.93 in 4.0 mi NNW 6.9 mph 16.1 mph 0.16 in Rain Light Rain
11:07 AM 53.6 °F - 50.0 °F 88% 29.94 in 1.8 mi North 8.1 mph - 0.02 in Rain Rain
11:23 AM 53.6 °F - 50.0 °F 88% 29.96 in 2.0 mi NW 5.8 mph - 0.05 in Rain Light Rain
11:34 AM 53.6 °F - 50.0 °F 88% 29.96 in 3.0 mi North 5.8 mph - 0.06 in Rain Light Rain
12:53 PM 53.1 °F - 48.9 °F 86% 29.93 in 6.0 mi Calm Calm - 0.02 in Rain Light Rain
1:33 PM 53.6 °F - 50.0 °F 88% 29.93 in 10.0 mi NNE 3.5 mph - 0.02 in   Overcast
1:53 PM 53.1 °F - 48.9 °F 86% 29.92 in 10.0 mi North 3.5 mph - 0.02 in   Overcast
2:39 PM 53.6 °F - 48.2 °F 82% 29.95 in 10.0 mi North 5.8 mph - 0.01 in   Overcast
2:51 PM 53.6 °F - 48.2 °F 82% 29.96 in 10.0 mi North 4.6 mph - 0.01 in   Overcast
2:53 PM 53.1 °F - 48.9 °F 86% 29.94 in 10.0 mi NNW 5.8 mph - 0.01 in   Overcast
3:12 PM 48.2 °F - 46.4 °F 93% 29.98 in 9.0 mi NNW 15.0 mph 23.0 mph N/A   Overcast
3:14 PM 48.2 °F - 44.6 °F 87% 29.99 in 9.0 mi NW 16.1 mph 23.0 mph N/A   Overcast
3:53 PM 45.0 °F 37.9 °F 42.1 °F 90% 30.01 in 6.0 mi NNW 16.1 mph - N/A   Overcast
4:03 PM 44.6 °F 38.1 °F 42.8 °F 93% 30.03 in 10.0 mi NNW 13.8 mph - N/A   Overcast
4:53 PM 45.0 °F 39.3 °F 41.0 °F 86% 30.05 in 10.0 mi NNW 11.5 mph - N/A   Mostly Cloudy
5:04 PM 44.6 °F 38.4 °F 41.0 °F 87% 30.07 in 10.0 mi NNW 12.7 mph - N/A   Mostly Cloudy
5:46 PM 44.6 °F 39.7 °F 39.2 °F 81% 30.10 in 10.0 mi North 9.2 mph - N/A   Overcast
5:53 PM 45.0 °F 39.3 °F 39.9 °F 82% 30.10 in 10.0 mi North 11.5 mph - N/A   Overcast
6:44 PM 42.8 °F 35.1 °F 37.4 °F 81% 30.13 in 10.0 mi NNW 16.1 mph 23.0 mph N/A   Mostly Cloudy
6:53 PM 43.0 °F 36.4 °F 37.0 °F 80% 30.14 in 10.0 mi NNW 12.7 mph - N/A   Mostly Cloudy
7:19 PM 42.8 °F 36.6 °F 35.6 °F 76% 30.16 in 10.0 mi NNW 11.5 mph - N/A   Mostly Cloudy
7:53 PM 41.0 °F 33.9 °F 34.0 °F 76% 30.17 in 10.0 mi NNW 12.7 mph 20.7 mph N/A   Partly Cloudy
8:25 PM 41.0 °F 33.9 °F 35.6 °F 81% 30.20 in 10.0 mi NNW 12.7 mph 19.6 mph N/A   Mostly Cloudy
8:53 PM 39.9 °F 31.8 °F 33.1 °F 77% 30.21 in 10.0 mi NNW 15.0 mph - N/A   Overcast
9:53 PM 39.0 °F 32.3 °F 32.0 °F 76% 30.25 in 10.0 mi NNW 10.4 mph - N/A   Overcast
10:35 PM 37.4 °F 30.8 °F 30.2 °F 75% 30.27 in 10.0 mi North 9.2 mph - N/A   Scattered Clouds
10:53 PM 37.0 °F 31.0 °F 30.0 °F 76% 30.28 in 10.0 mi North 8.1 mph - N/A   Partly Cloudy
11:53 PM 36.0 °F 29.6 °F 28.9 °F 76% 30.29 in 10.0 mi North 8.1 mph - N/A   Clear